Orbital Elements at Epoch 2459200.5 (2020-Dec-17.0) TDB
Reference: JPL 20 (heliocentric ecliptic J2000)
Element | Value | Uncertainty (1-sigma) | Units |
e | .85597370893876 | 3.8512e-07 | |
a | 2.516833057444134 | 6.1684e-08 | au |
q | .3624901304839994 | 9.6976e-07 | au |
i | 44.47011270100649 | 0.00012762 | deg |
node | 21.64972272951725 | 1.7672e-05 | deg |
peri | 210.0227419681698 | 7.1885e-05 | deg |
M | 322.921840944899 | 8.4548e-05 | deg |
tp | 2459350.708913091430 (2021-May-16.20891309) | 0.00034449 | TDB |
period | 1458.411369144698 3.99 | 5.3616e-05 1.468e-07 | d yr |
n | .2468439341714171 | 9.0748e-09 | deg/d |
Q | 4.671175984404268 | 1.1448e-07 | au |
|
| | Orbit Determination Parameters
Additional Information
|